DW3471 Weather Reports


Display with metric or nautical units.
time (UTC)temp
F
wind
direction
speed
MPH
gust
MPH
rain 1hr
in
rain 24hr
in
rain mn
in
humidity
%
barometer
mb
20210621101041 74 343 0.0 0.0 0.00 0.00 0.00 89 1006.8
20210621100039 74 343 0.0 0.0 0.00 0.00 0.00 88 1006.8
20210621095037 74 343 0.0 0.0 0.00 0.00 0.00 88 1006.8
20210621094037 74 343 0.0 0.0 0.00 0.00 0.00 89 1006.8
20210621093036 74 343 0.0 0.0 0.00 0.00 0.00 89 1006.8
20210621092035 74 343 0.0 0.0 0.00 0.00 0.00 88 1006.8
20210621091035 74 254 0.0 0.0 0.00 0.00 0.00 88 1006.8
20210621090033 74 5 0.0 0.0 0.00 0.00 0.00 89 1006.8
20210621085032 74 326 0.0 0.0 0.00 0.00 0.00 89 1006.8
20210621084031 74 326 0.0 0.0 0.00 0.00 0.00 89 1006.8
20210621083030 74 325 0.0 0.0 0.00 0.00 0.00 89 1006.8
20210621082030 74 130 0.0 0.0 0.00 0.00 0.00 89 1006.8
20210621081028 74 130 0.0 2.0 0.00 0.00 0.00 89 1006.8
20210621080027 74 76 0.0 2.0 0.00 0.00 0.00 89 1006.8
20210621075026 74 96 0.0 0.0 0.00 0.00 0.00 89 1006.8
20210621074026 74 107 0.0 0.0 0.00 0.00 0.00 89 1006.8
20210621073024 74 90 0.0 0.0 0.00 0.00 0.00 88 1006.8
20210621072023 74 90 0.0 0.0 0.00 0.00 0.00 88 1006.8
20210621071022 74 106 0.0 0.0 0.00 0.00 0.00 88 1006.4
20210621070022 74 202 0.0 1.0 0.00 0.00 0.00 88 1006.4
20210621065021 74 61 0.0 0.0 0.00 0.00 0.00 88 1006.4
20210621064019 75 360 0.0 2.0 0.00 0.00 0.00 88 1006.4
20210621063018 75 34 0.0 0.0 0.00 0.00 0.00 88 1006.4
20210621062017 75 34 0.0 4.0 0.00 0.00 0.00 88 1006.1
20210621061016 75 83 0.0 1.0 0.00 0.00 0.00 87 1006.1
20210621060015 75 54 1.0 1.0 0.00 0.00 0.00 87 1006.4
20210621055015 75 315 0.0 0.0 0.00 0.00 0.00 87 1006.4
20210621054014 76 315 0.0 0.0 0.00 0.00 0.00 87 1006.8
20210621053014 76 350 0.0 1.0 0.00 0.00 0.00 86 1006.4
20210621052013 76 345 0.0 3.0 0.00 0.00 0.00 86 1006.8
20210621051012 76 219 0.0 0.0 0.00 0.00 0.00 86 1006.8
20210621050011 76 211 0.0 3.0 0.00 0.00 0.00 85 1006.8
20210621045011 76 37 0.0 4.0 0.00 0.00 0.00 85 1006.8
20210621044010 76 185 0.0 3.0 0.00 0.00 0.00 85 1007.1
20210621043010 76 11 1.0 2.0 0.00 0.00 0.00 84 1007.1
20210621042009 76 63 0.0 0.0 0.00 0.00 0.00 84 1007.1
20210621041008 77 19 0.0 0.0 0.00 0.00 0.00 83 1007.5
20210621040008 77 234 0.0 0.0 0.00 0.00 0.00 83 1007.5
20210621035007 77 233 0.0 0.0 0.00 0.00 0.00 82 1007.5
20210621034006 77 232 0.0 0.0 0.00 0.00 0.00 82 1007.8
20210621033005 77 105 0.0 0.0 0.00 0.00 0.00 81 1007.8
20210621032005 77 113 0.0 0.0 0.00 0.00 0.00 81 1008.1
20210621031004 77 105 0.0 0.0 0.00 0.00 0.00 81 1008.1
20210621030002 77 106 0.0 0.0 0.00 0.00 0.00 81 1008.1
20210621025000 78 106 0.0 0.0 0.00 0.00 0.00 80 1008.5
20210621024000 78 106 0.0 0.0 0.00 0.00 0.00 80 1008.5
20210621022959 78 106 0.0 0.0 0.00 0.00 0.00 79 1008.5
20210621021958 78 106 0.0 0.0 0.00 0.00 0.00 79 1008.1
20210621020956 79 106 0.0 0.0 0.00 0.00 0.00 78 1007.8
20210621015956 79 344 0.0 3.0 0.00 0.00 0.00 78 1008.1
20210621014955 79 339 0.0 0.0 0.00 0.00 0.00 77 1007.8
20210621013954 79 11 0.0 0.0 0.00 0.00 0.00 77 1008.1
20210621012954 80 11 0.0 2.0 0.00 0.00 0.00 76 1007.8
20210621011953 80 10 0.0 0.0 0.00 0.00 0.00 75 1007.8
20210621010952 80 10 0.0 1.0 0.00 0.00 0.00 74 1007.8
20210621005952 81 228 2.0 4.0 0.00 0.00 0.00 74 1007.8
20210621004951 81 209 0.0 3.0 0.00 0.01 0.00 73 1007.5
20210621003950 82 139 0.0 2.0 0.00 0.01 0.00 72 1007.5
20210621002950 82 101 1.0 2.0 0.00 0.01 0.00 71 1007.5
20210621001949 82 347 1.0 3.0 0.00 0.01 0.00 70 1007.5
20210621000948 83 271 0.0 3.0 0.00 0.01 0.00 69 1007.5
20210620235947 83 61 2.0 3.0 0.00 0.01 0.00 67 1007.5
20210620234947 83 241 0.0 2.0 0.00 0.01 0.00 67 1007.5
20210620233945 84 211 0.0 0.0 0.00 0.01 0.00 67 1007.5
20210620232943 84 348 0.0 1.0 0.00 0.01 0.00 67 1007.5
20210620231942 84 3 1.0 1.0 0.00 0.01 0.00 66 1007.5
20210620230940 85 57 0.0 4.0 0.00 0.01 0.00 65 1007.5
20210620225940 86 57 0.0 2.0 0.00 0.01 0.00 64 1007.5
20210620224939 87 236 1.0 3.0 0.00 0.01 0.00 59 1007.5
20210620223938 87 82 0.0 1.0 0.00 0.01 0.00 61 1007.1
20210620222937 88 96 0.0 2.0 0.00 0.02 0.00 61 1007.1
20210620221935 88 25 1.0 2.0 0.00 0.02 0.00 59 1007.1
20210620220935 88 88 0.0 2.0 0.00 0.02 0.00 59 1007.5
20210620215934 88 29 0.0 4.0 0.00 0.02 0.00 60 1007.5
20210620214933 89 314 1.0 3.0 0.00 0.02 0.00 57 1007.5
20210620213933 88 227 0.0 3.0 0.00 0.02 0.00 59 1007.5
20210620212931 88 39 1.0 5.0 0.00 0.02 0.00 60 1007.5
20210620211930 89 19 2.0 2.0 0.00 0.02 0.00 61 1007.5
20210620210929 88 28 1.0 5.0 0.00 0.02 0.00 59 1007.5
20210620205927 89 30 2.0 3.0 0.00 0.02 0.00 58 1007.8
20210620204926 90 268 2.0 3.0 0.00 0.02 0.00 56 1007.8
20210620203926 89 104 1.0 3.0 0.00 0.02 0.00 57 1007.8
20210620202924 88 341 2.0 6.0 0.00 0.02 0.00 56 1008.1
20210620201923 88 248 2.0 3.0 0.00 0.02 0.00 58 1008.1
20210620200923 89 123 0.0 3.0 0.00 0.03 0.00 56 1008.1
20210620195922 89 11 1.0 3.0 0.00 0.03 0.00 57 1008.1
20210620194921 88 324 1.0 6.0 0.00 0.03 0.00 56 1008.1
20210620193921 87 269 0.0 2.0 0.00 0.03 0.00 59 1008.1
20210620192919 87 316 2.0 4.0 0.00 0.03 0.00 59 1008.1
20210620191917 87 321 0.0 5.0 0.00 0.03 0.00 59 1008.1
20210620190916 87 269 1.0 2.0 0.00 0.03 0.00 58 1008.1
20210620185914 86 57 1.0 3.0 0.00 0.03 0.00 64 1008.1
20210620184914 86 264 2.0 5.0 0.00 0.03 0.00 63 1008.1
20210620183912 86 175 0.0 0.0 0.00 0.03 0.00 63 1008.5
20210620182911 86 43 0.0 5.0 0.00 0.03 0.00 63 1008.5
20210620181911 87 5 1.0 2.0 0.00 0.03 0.00 58 1008.5
20210620180910 87 345 1.0 4.0 0.00 0.03 0.00 60 1008.5
20210620175909 86 310 1.0 2.0 0.00 0.03 0.00 63 1008.5
20210620174909 85 254 2.0 5.0 0.00 0.03 0.00 63 1008.5
20210620173908 85 244 2.0 6.0 0.00 0.03 0.00 65 1008.8
20210620172907 85 114 1.0 5.0 0.00 0.03 0.00 65 1008.8
20210620171905 85 131 3.0 5.0 0.00 0.03 0.00 65 1009.1
20210620170904 85 276 3.0 5.0 0.00 0.03 0.00 64 1009.1
20210620165904 83 180 3.0 4.0 0.00 0.03 0.00 68 1009.1
20210620164903 83 331 0.0 2.0 0.00 0.03 0.00 68 1009.5
20210620163902 82 194 0.0 2.0 0.00 0.03 0.00 69 1009.5
20210620162901 81 18 0.0 1.0 0.00 0.03 0.00 74 1009.8
20210620161901 80 13 0.0 0.0 0.00 0.03 0.00 76 1009.8
20210620160900 80 107 0.0 1.0 0.00 0.03 0.00 75 1009.8
20210620155859 80 115 0.0 0.0 0.00 0.03 0.00 75 1009.5
20210620154857 80 296 0.0 0.0 0.00 0.03 0.00 74 1009.8
20210620153857 80 140 0.0 0.0 0.00 0.03 0.00 75 1009.8
20210620152856 80 243 0.0 1.0 0.00 0.03 0.00 74 1009.8
20210620151855 79 339 1.0 1.0 0.00 0.03 0.00 75 1009.8
20210620150853 79 327 0.0 3.0 0.00 0.03 0.00 75 1009.8
20210620145852 78 214 2.0 5.0 0.00 0.03 0.00 74 1009.5
20210620144852 78 245 1.0 4.0 0.00 0.03 0.00 74 1009.5
20210620143851 77 91 0.0 1.0 0.00 0.03 0.00 78 1009.5
20210620142850 77 265 1.0 3.0 0.00 0.03 0.00 77 1009.5
20210620141850 76 35 3.0 4.0 0.00 0.03 0.00 79 1009.5
20210620140849 76 276 2.0 5.0 0.00 0.03 0.00 80 1009.5
20210620135847 75 59 0.0 5.0 0.00 0.03 0.00 81 1009.8
20210620134847 74 215 1.0 4.0 0.00 0.03 0.00 82 1009.8
20210620133846 73 97 1.0 2.0 0.00 0.03 0.00 84 1010.2
20210620132845 72 53 0.0 0.0 0.00 0.03 0.00 85 1010.2
20210620131845 72 275 0.0 0.0 0.00 0.03 0.00 86 1010.2
20210620130844 71 158 0.0 2.0 0.00 0.03 0.00 87 1010.5
20210620125842 70 230 1.0 2.0 0.00 0.03 0.00 89 1010.5
20210620124841 70 144 0.0 0.0 0.00 0.03 0.00 90 1010.8
20210620123841 69 159 0.0 2.0 0.00 0.03 0.00 90 1010.8
20210620122840 68 278 1.0 2.0 0.00 0.03 0.00 91 1010.8
20210620121839 68 51 0.0 1.0 0.00 0.03 0.00 92 1010.8
20210620120837 67 210 0.0 0.0 0.00 0.03 0.00 92 1010.8
20210620115836 67 210 0.0 0.0 0.00 0.03 0.00 92 1010.8
20210620114836 66 316 0.0 0.0 0.00 0.03 0.00 92 1010.5
20210620113835 66 316 0.0 0.0 0.00 0.03 0.00 92 1010.2
20210620112834 65 316 0.0 0.0 0.00 0.03 0.00 92 1010.2
20210620111834 65 316 0.0 0.0 0.00 0.03 0.00 92 1010.2
20210620110833 65 316 0.0 0.0 0.00 0.03 0.00 92 1010.2
20210620105832 64 316 0.0 0.0 0.00 0.03 0.00 92 1010.2
20210620104830 64 316 0.0 0.0 0.00 0.03 0.00 92 1009.8
20210620103830 64 316 0.0 0.0 0.00 0.03 0.00 92 1009.5
20210620102828 64 316 0.0 0.0 0.00 0.03 0.00 92 1009.5
20210620101826 64 316 0.0 0.0 0.00 0.03 0.00 92 1009.5